This demonstration page uses our WeatherBlox Daily Observations layout. Learn more.

Left ArrowRight Arrow

Hourly Observations for October 4, 2022

Temp ( °F °C ) Dew Point ( °F °C ) Humidity (%) Winds ( mph kmh ) Pressure ( in mb ) Visibility ( mi km ) Precip ( " mm )
12:15 am 00:15 Cloudy 61 16.2 53 11.5 74 74 E 12 19 30.05 1018 10 16 0.00 0.00
12:35 am 00:35 Cloudy 62 16.8 51 10.3 65 65 ESE 8 13 30.05 1018 10 16 0.00 0.00
12:55 am 00:55 Cloudy with Light Rain 63 17.3 49 9.6 61 61 E 13 20 30.04 1017 10 16 0.00 0.00
1:15 am 01:15 Cloudy with Rain 60 15.7 52 11.2 75 75 SW 6 9 30.08 1019 7 11 0.00 0.00
1:35 am 01:35 Cloudy with Light Rain 59 15 53 11.9 82 82 SE 8 13 30.09 1019 10 16 0.02 0.51
1:55 am 01:55 Cloudy with Light Rain 58 14.7 53 11.8 83 83 ESE 6 9 30.09 1019 10 16 0.05 1.27
2:15 am 02:15 Cloudy with Rain 58 14.7 54 12 84 84 SE 6 9 30.09 1019 7 11 0.03 0.76
2:35 am 02:35 Cloudy with Light Rain 58 14.3 55 12.5 89 89 Calm 30.08 1019 10 16 0.04 1.02
2:55 am 02:55 Cloudy with Light Rain 58 14.4 54 12.2 87 87 NE 5 7 30.08 1019 10 16 0.04 1.02
3:15 am 03:15 Cloudy with Light Rain 57 14 55 12.5 91 91 E 7 11 30.07 1018 10 16 0.00 0.00
3:35 am 03:35 Cloudy with Light Rain 57 13.7 55 12.5 92 92 NE 5 7 30.07 1018 10 16 0.02 0.51
3:55 am 03:55 Cloudy with Light Rain 56 13.5 55 12.5 94 94 NE 7 11 30.06 1018 10 16 0.03 0.76
4:15 am 04:15 Cloudy with Light Rain 57 13.9 54 12.3 90 90 ESE 5 7 30.07 1018 10 16 0.02 0.51
4:35 am 04:35 Cloudy with Rain 57 13.8 55 12.6 92 92 SSE 5 7 30.07 1018 10 16 0.02 0.51
4:55 am 04:55 Cloudy with Light Rain 57 14 55 12.6 91 91 E 7 11 30.04 1017 10 16 0.03 0.76
5:15 am 05:15 Cloudy with Light Rain 57 13.8 55 12.5 92 92 E 5 7 30.06 1018 10 16 0.00 0.00
5:35 am 05:35 Cloudy with Light Rain 57 13.8 55 12.7 93 93 Calm 30.07 1018 10 16 0.01 0.25
5:55 am 05:55 Cloudy 57 13.7 55 12.8 94 94 E 5 7 30.05 1018 10 16 0.01 0.25
6:15 am 06:15 Cloudy 56 13.6 55 12.7 94 94 NE 5 7 30.05 1018 10 16 0.00 0.00
6:35 am 06:35 Cloudy 56 13.6 55 12.9 96 96 W 7 11 30.08 1019 10 16 0.00 0.00
6:55 am 06:55 Mostly Cloudy 56 13.4 55 12.7 96 96 W 3 6 30.08 1019 10 16 0.00 0.00
7:15 am 07:15 Mostly Cloudy 56 13.1 55 12.5 96 96 W 3 6 30.09 1019 10 16 0.00 0.00
7:35 am 07:35 Mostly Cloudy 56 13.1 55 12.5 96 96 Calm 30.09 1019 10 16 0.00 0.00
7:55 am 07:55 Partly Cloudy 55 13 55 12.5 97 97 Calm 30.09 1019 10 16 0.00 0.00
8:15 am 08:15 Sunny 55 13 55 12.5 97 97 Calm 30.09 1019 10 16 0.00 0.00
8:35 am 08:35 Sunny 55 13 55 12.5 97 97 NW 3 6 30.09 1019 7 11 0.00 0.00
8:55 am 08:55 Sunny 56 13.1 55 12.5 96 96 NNW 3 6 30.09 1019 7 11 0.00 0.00
9:15 am 09:15 Sunny 56 13.6 55 13 96 96 Calm 30.08 1019 10 16 0.00 0.00
9:35 am 09:35 Sunny 57 14 56 13.1 94 94 Calm 30.07 1018 10 16 0.00 0.00
9:55 am 09:55 Partly Cloudy 58 14.3 56 13.4 94 94 Calm 30.07 1018 10 16 0.00 0.00
10:15 am 10:15 Mostly Cloudy 58 14.6 56 13.4 93 93 Calm 30.07 1018 10 16 0.00 0.00
10:35 am 10:35 Cloudy 59 14.9 57 13.7 93 93 NNW 5 7 30.08 1019 10 16 0.00 0.00
10:55 am 10:55 Mostly Cloudy 59 15.1 56 13.5 90 90 Calm 30.08 1018 10 16 0.00 0.00
11:15 am 11:15 Partly Cloudy 60 15.4 57 13.7 90 90 Calm 30.07 1018 10 16 0.00 0.00
11:35 am 11:35 Mostly Cloudy 63 17 56 13.6 80 80 Calm 30.06 1018 10 16 0.00 0.00
11:55 am 11:55 Cloudy 63 17.2 57 14.1 82 82 NW 3 6 30.07 1018 10 16 0.00 0.00
12:15 pm 12:15 Cloudy 64 17.9 57 13.7 76 76 Calm 30.06 1018 10 16 0.00 0.00
12:35 pm 12:35 Cloudy 64 17.7 56 13.5 76 76 Calm 30.06 1018 10 16 0.00 0.00
12:55 pm 12:55 Mostly Cloudy 65 18.6 57 13.9 74 74 Calm 30.05 1018 10 16 0.00 0.00
1:15 pm 13:15 Cloudy 65 18.4 57 13.8 75 75 Calm 30.05 1017 10 16 0.00 0.00
1:35 pm 13:35 Partly Cloudy 67 19.2 57 13.8 71 71 Calm 30.03 1017 10 16 0.00 0.00
1:55 pm 13:55 Sunny 67 19.5 56 13.2 67 67 Calm 30.03 1017 10 16 0.00 0.00
2:15 pm 14:15 Sunny 68 20.1 54 12.4 61 61 Calm 30.01 1016 10 16 0.00 0.00
2:35 pm 14:35 Sunny 69 20.5 55 12.6 61 61 Calm 30.00 1016 10 16 0.00 0.00
2:55 pm 14:55 Sunny 70 21 55 13 60 60 NW 7 11 29.98 1015 10 16 0.00 0.00
3:15 pm 15:15 Sunny 70 21.2 55 12.5 58 58 Calm 29.98 1015 10 16 0.00 0.00
3:35 pm 15:35 Sunny 71 21.8 53 11.9 53 53 NW 3 6 29.98 1015 10 16 0.00 0.00
3:55 pm 15:55 Sunny 72 22.3 54 12.2 53 53 WNW 5 7 29.97 1015 10 16 0.00 0.00
4:15 pm 16:15 Partly Cloudy 72 22.3 54 12.3 53 53 Calm 29.96 1015 10 16 0.00 0.00
4:35 pm 16:35 Partly Cloudy 73 22.8 53 11.9 50 50 Calm 29.96 1015 10 16 0.00 0.00
4:55 pm 16:55 Partly Cloudy 72 22.3 54 12 52 52 Calm 29.96 1015 10 16 0.00 0.00
5:15 pm 17:15 Sunny 73 23 54 12.4 51 51 Calm 29.96 1014 10 16 0.00 0.00
5:35 pm 17:35 Sunny 73 22.9 54 12 50 50 W 5 7 29.96 1014 10 16 0.00 0.00
5:55 pm 17:55 Partly Cloudy 73 22.6 53 11.7 50 50 Calm 29.96 1015 10 16 0.00 0.00
6:15 pm 18:15 Sunny 72 22.3 52 11.1 49 49 NW 5 7 29.96 1015 10 16 0.00 0.00
6:35 pm 18:35 Partly Cloudy 67 19.4 49 9.3 52 52 NNW 5 7 30.00 1016 10 16 0.00 0.00
6:55 pm 18:55 Sunny 65 18.6 49 9.6 56 56 N 6 9 30.00 1016 10 16 0.00 0.00
7:15 pm 19:15 Sunny 63 17.1 50 10 63 63 N 6 9 30.03 1017 10 16 0.00 0.00
7:35 pm 19:35 Mostly Cloudy 62 16.6 51 10.3 66 66 Calm 30.04 1017 10 16 0.00 0.00
7:55 pm 19:55 Partly Cloudy 62 16.6 50 10.2 66 66 Calm 30.04 1017 10 16 0.00 0.00
8:15 pm 20:15 Clear 59 15 53 11.5 80 80 W 3 6 30.06 1018 10 16 0.00 0.00
8:35 pm 20:35 Clear 58 14.5 53 11.6 83 83 Calm 30.07 1018 10 16 0.00 0.00
8:55 pm 20:55 Partly Cloudy 56 13.3 52 11.1 87 87 WNW 3 6 30.08 1019 10 16 0.00 0.00
9:15 pm 21:15 Partly Cloudy 56 13.5 53 11.4 87 87 W 3 6 30.08 1019 10 16 0.00 0.00
9:35 pm 21:35 Clear 55 12.5 50 10.2 86 86 W 3 6 30.10 1019 10 16 0.00 0.00
9:55 pm 21:55 Clear 55 12.9 51 10.5 85 85 Calm 30.10 1019 10 16 0.00 0.00
10:15 pm 22:15 Clear 55 12.5 51 10.7 89 89 WNW 3 6 30.11 1020 10 16 0.00 0.00
10:35 pm 22:35 Clear 53 11.9 50 10.1 89 89 Calm 30.11 1020 10 16 0.00 0.00
10:55 pm 22:55 Clear 52 11.2 50 10 92 92 WNW 5 7 30.13 1020 10 16 0.00 0.00
11:15 pm 23:15 Clear 51 10.7 50 9.9 95 95 WNW 7 11 30.15 1021 10 16 0.00 0.00
11:35 pm 23:35 Clear 51 10.4 49 9.5 94 94 WNW 6 9 30.15 1021 10 16 0.00 0.00
11:55 pm 23:55 Clear 50 10.1 48 9.1 93 93 W 5 7 30.15 1021 10 16 0.00 0.00

Powered by AerisWeather